Location: ???? ??????? ????
(31.2176°N, 31.6797°E)
Time: 00:39:08
(UTC+00:00)

Okean O Rocket - Visible Passes

Search period start: 27 February 2021 00:00
Search period end: 09 March 2021 00:00
Orbit: 622 x 645 km, 98.2° (Epoch: 26 February)

Date Brightness Start Highest point End Pass type
(mag) Time Alt. Az. Time Alt. Az. Time Alt. Az.
27 Feb 5.4 03:14:14 10° ENE 03:15:24 11° E 03:16:34 10° ESE visible
28 Feb 4.7 03:33:45 10° NE 03:36:59 20° E 03:40:14 10° SE visible
01 Mar 3.6 03:54:28 10° NNE 03:58:32 36° E 04:02:34 10° SSE visible
01 Mar 3.8 16:21:55 10° SSW 16:25:48 32° W 16:29:40 10° NW visible
02 Mar 4.8 16:44:24 10° SW 16:47:20 18° W 16:50:17 10° NW visible
04 Mar 5.0 03:23:54 10° ENE 03:26:25 15° E 03:28:56 10° SE visible
05 Mar 4.2 03:44:14 10° NE 03:47:59 27° E 03:51:42 10° SSE visible
05 Mar 3.1 16:11:07 10° S 16:15:14 43° W 16:19:22 10° NNW visible
06 Mar 4.3 16:33:15 10° SSW 16:36:45 24° W 16:40:16 10° NW visible
07 Mar 5.0 16:56:14 10° WSW 16:58:19 13° W 17:00:25 10° WNW visible
08 Mar 5.4 03:14:43 10° E 03:15:49 11° E 03:16:54 10° ESE visible
